Location: Lombard
(41.8800°N, 88.0080°W)
Time: 14:32:42
(UTC-05:00)

ITAMSAT 1 - Visible Passes

Search period start: 16 May 2022 00:00
Search period end: 26 May 2022 00:00
Orbit: 783 x 797 km, 98.9° (Epoch: 16 May)

Date Brightness Start Highest point End Pass type
(mag) Time Alt. Az. Time Alt. Az. Time Alt. Az.
16 May 9.6 20:37:11 10° SSW 20:41:44 30° W 20:46:18 10° NW visible
18 May 10.4 21:20:13 10° WSW 21:22:30 13° W 21:24:48 10° WNW visible
19 May 9.9 20:48:27 10° SSW 20:52:38 25° W 20:56:51 10° NW visible
22 May 10.2 20:59:51 10° SW 21:03:35 20° W 21:07:19 10° NW visible
25 May 10.3 21:11:27 10° SW 21:14:31 16° W 21:17:36 10° NW visible
